Location: Pittsburgh
(40.4410°N, 79.9960°W)
Time: 00:51:34
(UTC-04:00)

BlueWalker 3 - Pass Details

Date: 15 March 2026
Orbit: 449 x 457 km, 53.2° (Epoch: 17 April)

Event Time Altitude Azimuth Distance (km) Brightness Sun altitude
Exits shadow 05:57:58 17° 331° (NNW) 1,246 3.8 -18.5°
Maximum altitude 06:00:21 36° 32° (NNE) 734 3.1 -18.1°
Drops below altitude 10° 06:03:42 10° 101° (E) 1,590 5.5 -17.4°
Sets 06:05:56 0° 110° (ESE) 2,459 6.4 -17.0°
